Time,TemperatureF,DewpointF,PressureIn,WindDirection,WindDirectionDegrees,WindSpeedMPH,WindSpeedGustMPH,Humidity,HourlyPrecipIn,Conditions,Clouds,dailyrainin,SoftwareType,DateUTC
2013-01-09 00:04:00,40.5,33.2,29.92,SSW,202,14.3,18.4,75,0.00,CLR,BKN,0.00,WeatherDisplay:10.37,2013-01-09 06:04:00,
2013-01-09 00:09:00,40.5,33.2,29.93,SW,225,17.9,18.4,75,0.00,CLR,BKN,0.00,WeatherDisplay:10.37,2013-01-09 06:09:00,
2013-01-09 00:14:00,40.5,33.5,29.92,SSW,202,19.2,19.6,76,0.00,CLR,BKN,0.00,WeatherDisplay:10.37,2013-01-09 06:14:00,
2013-01-09 00:19:00,40.5,33.5,29.93,SW,225,15.0,16.1,76,0.00,CLR,BKN,0.00,WeatherDisplay:10.37,2013-01-09 06:19:00,
2013-01-09 00:24:00,40.5,33.5,29.92,SW,225,14.7,16.1,76,0.00,CLR,BKN,0.00,WeatherDisplay:10.37,2013-01-09 06:24:00,
2013-01-09 00:29:00,40.3,33.3,29.92,SW,225,13.7,18.4,76,0.00,CLR,BKN,0.00,WeatherDisplay:10.37,2013-01-09 06:29:00,
2013-01-09 00:34:00,40.3,33.3,29.92,WSW,248,11.4,17.3,76,0.00,CLR,BKN,0.00,WeatherDisplay:10.37,2013-01-09 06:34:00,
2013-01-09 00:39:00,40.1,33.1,29.92,SW,225,15.0,15.0,76,0.00,CLR,BKN,0.00,WeatherDisplay:10.37,2013-01-09 06:39:00,
2013-01-09 00:44:00,40.1,33.5,29.92,SSW,202,12.5,16.1,77,0.00,CLR,BKN,0.00,WeatherDisplay:10.37,2013-01-09 06:44:00,
2013-01-09 00:49:00,39.9,33.3,29.92,SW,225,15.6,16.1,77,0.00,CLR,BKN,0.00,WeatherDisplay:10.37,2013-01-09 06:49:00,
2013-01-09 00:54:00,39.9,33.3,29.93,SW,225,14.3,16.1,77,0.00,CLR,BKN,0.00,WeatherDisplay:10.37,2013-01-09 06:54:00,
2013-01-09 00:59:00,39.9,33.3,29.93,SW,225,14.7,15.0,77,0.00,CLR,BKN,0.00,WeatherDisplay:10.37,2013-01-09 06:59:00,
2013-01-09 01:04:00,39.9,33.0,29.93,SW,225,13.5,13.8,76,0.00,CLR,BKN,0.00,WeatherDisplay:10.37,2013-01-09 07:04:00,
2013-01-09 01:09:00,39.7,33.1,29.93,SSW,202,13.9,17.3,77,0.00,CLR,BKN,0.00,WeatherDisplay:10.37,2013-01-09 07:09:00,
2013-01-09 01:14:00,39.6,32.9,29.93,SW,225,12.8,15.0,77,0.00,CLR,BKN,0.00,WeatherDisplay:10.37,2013-01-09 07:14:00,
2013-01-09 01:19:00,39.4,32.8,29.94,SW,225,13.0,13.8,77,0.00,CLR,BKN,0.00,WeatherDisplay:10.37,2013-01-09 07:19:00,
2013-01-09 01:24:00,39.2,32.6,29.94,SW,225,12.8,16.1,77,0.00,CLR,BKN,0.00,WeatherDisplay:10.37,2013-01-09 07:24:00,
2013-01-09 01:29:00,39.2,32.6,29.94,SW,225,11.8,13.8,77,0.00,CLR,BKN,0.00,WeatherDisplay:10.37,2013-01-09 07:29:00,
2013-01-09 01:34:00,39.2,32.6,29.94,SW,225,11.6,15.0,77,0.00,CLR,BKN,0.00,WeatherDisplay:10.37,2013-01-09 07:34:00,
2013-01-09 01:39:00,39.2,32.6,29.94,SW,225,15.2,15.2,77,0.00,CLR,BKN,0.00,WeatherDisplay:10.37,2013-01-09 07:39:00,
2013-01-09 01:44:00,39.2,32.6,29.95,WSW,248,15.6,17.3,77,0.00,CLR,BKN,0.00,WeatherDisplay:10.37,2013-01-09 07:44:00,
2013-01-09 01:49:00,39.0,32.4,29.95,WSW,248,16.1,16.1,77,0.00,CLR,BKN,0.00,WeatherDisplay:10.37,2013-01-09 07:49:00,
2013-01-09 01:54:00,38.8,32.2,29.95,WSW,248,16.6,16.6,77,0.00,CLR,BKN,0.00,WeatherDisplay:10.37,2013-01-09 07:54:00,
2013-01-09 01:59:00,38.8,32.2,29.96,WSW,248,16.1,16.1,77,0.00,CLR,BKN,0.00,WeatherDisplay:10.37,2013-01-09 07:59:00,
2013-01-09 02:04:00,38.8,32.2,29.96,WSW,248,12.3,16.1,77,0.00,CLR,BKN,0.00,WeatherDisplay:10.37,2013-01-09 08:04:00,
2013-01-09 02:09:00,38.8,32.2,29.96,WSW,248,13.0,13.8,77,0.00,CLR,BKN,0.00,WeatherDisplay:10.37,2013-01-09 08:09:00,
2013-01-09 02:14:00,38.7,32.1,29.96,WSW,248,15.4,15.4,77,0.00,CLR,BKN,0.00,WeatherDisplay:10.37,2013-01-09 08:14:00,
2013-01-09 02:19:00,38.5,31.9,29.97,WSW,248,13.5,13.8,77,0.00,CLR,BKN,0.00,WeatherDisplay:10.37,2013-01-09 08:19:00,
2013-01-09 02:24:00,38.5,31.9,29.96,WSW,248,12.8,18.4,77,0.00,CLR,BKN,0.00,WeatherDisplay:10.37,2013-01-09 08:24:00,
2013-01-09 02:29:00,38.1,31.2,29.97,WSW,248,12.1,12.1,76,0.00,CLR,BKN,0.00,WeatherDisplay:10.37,2013-01-09 08:29:00,
2013-01-09 02:34:00,37.9,31.0,29.97,WSW,248,13.5,13.5,76,0.00,CLR,BKN,0.00,WeatherDisplay:10.37,2013-01-09 08:34:00,
2013-01-09 02:39:00,37.8,31.2,29.97,WSW,248,11.4,11.5,77,0.00,CLR,BKN,0.00,WeatherDisplay:10.37,2013-01-09 08:39:00,
2013-01-09 02:44:00,37.6,31.3,29.97,West,270,13.7,13.7,78,0.00,CLR,BKN,0.00,WeatherDisplay:10.37,2013-01-09 08:44:00,
2013-01-09 02:49:00,37.8,31.5,29.97,WSW,248,11.8,15.0,78,0.00,CLR,BKN,0.00,WeatherDisplay:10.37,2013-01-09 08:49:00,
2013-01-09 02:54:00,37.9,31.7,29.97,WSW,248,12.8,15.0,78,0.00,CLR,BKN,0.00,WeatherDisplay:10.37,2013-01-09 08:54:00,
2013-01-09 02:59:00,38.1,31.5,29.97,West,270,11.6,12.7,77,0.00,CLR,BKN,0.00,WeatherDisplay:10.37,2013-01-09 08:59:00,
2013-01-09 03:04:00,38.1,31.5,29.98,WSW,248,13.7,13.8,77,0.00,CLR,BKN,0.00,WeatherDisplay:10.37,2013-01-09 09:04:00,
2013-01-09 03:09:00,38.1,31.9,29.98,WSW,248,15.0,15.0,78,0.00,CLR,BKN,0.00,WeatherDisplay:10.37,2013-01-09 09:09:00,
2013-01-09 03:14:00,38.1,31.9,29.98,West,270,13.0,13.8,78,0.00,CLR,BKN,0.00,WeatherDisplay:10.37,2013-01-09 09:14:00,
2013-01-09 03:19:00,37.9,31.7,29.99,West,270,11.6,12.7,78,0.00,CLR,BKN,0.00,WeatherDisplay:10.37,2013-01-09 09:19:00,
2013-01-09 03:24:00,37.9,31.7,29.99,WSW,248,11.2,11.5,78,0.00,CLR,BKN,0.00,WeatherDisplay:10.37,2013-01-09 09:24:00,
2013-01-09 03:29:00,37.8,31.5,29.99,WSW,248,13.2,13.8,78,0.00,CLR,BKN,0.00,WeatherDisplay:10.37,2013-01-09 09:29:00,
2013-01-09 03:34:00,37.8,31.8,29.99,WSW,248,11.6,16.1,79,0.00,CLR,BKN,0.00,WeatherDisplay:10.37,2013-01-09 09:34:00,
2013-01-09 03:39:00,37.8,31.8,29.99,West,270,10.7,12.7,79,0.00,CLR,BKN,0.00,WeatherDisplay:10.37,2013-01-09 09:39:00,
2013-01-09 03:44:00,37.6,31.7,29.99,West,270,11.4,12.7,79,0.00,CLR,BKN,0.00,WeatherDisplay:10.37,2013-01-09 09:44:00,
2013-01-09 03:49:00,37.4,31.5,30.00,West,270,13.2,13.8,79,0.00,CLR,BKN,0.00,WeatherDisplay:10.37,2013-01-09 09:49:00,
2013-01-09 03:54:00,37.2,31.3,30.00,NW,315,8.5,9.2,79,0.00,CLR,BKN,0.00,WeatherDisplay:10.37,2013-01-09 09:54:00,
2013-01-09 03:59:00,37.0,31.1,30.00,WSW,248,8.7,10.4,79,0.00,CLR,BKN,0.00,WeatherDisplay:10.37,2013-01-09 09:59:00,
2013-01-09 04:04:00,36.7,31.1,30.00,WSW,248,9.7,10.4,80,0.00,CLR,BKN,0.00,WeatherDisplay:10.37,2013-01-09 10:04:00,
2013-01-09 04:09:00,36.5,30.9,30.00,West,270,9.0,11.5,80,0.00,CLR,BKN,0.00,WeatherDisplay:10.37,2013-01-09 10:09:00,
2013-01-09 04:14:00,36.5,30.9,30.00,WSW,248,9.7,11.5,80,0.00,CLR,BKN,0.00,WeatherDisplay:10.37,2013-01-09 10:14:00,
2013-01-09 04:19:00,36.3,30.7,30.00,WSW,248,10.7,11.5,80,0.00,CLR,BKN,0.00,WeatherDisplay:10.37,2013-01-09 10:19:00,
2013-01-09 04:24:00,36.1,30.9,30.01,West,270,10.7,11.5,81,0.00,CLR,BKN,0.00,WeatherDisplay:10.37,2013-01-09 10:24:00,
2013-01-09 04:29:00,36.0,30.7,30.00,West,270,10.9,11.5,81,0.00,CLR,BKN,0.00,WeatherDisplay:10.37,2013-01-09 10:29:00,
2013-01-09 04:34:00,36.0,31.0,30.01,West,270,9.9,11.5,82,0.00,CLR,BKN,0.00,WeatherDisplay:10.37,2013-01-09 10:34:00,
2013-01-09 04:39:00,36.0,30.7,30.02,West,270,9.9,10.4,81,0.00,CLR,BKN,0.00,WeatherDisplay:10.37,2013-01-09 10:39:00,
2013-01-09 04:44:00,35.8,30.8,30.02,West,270,9.4,10.4,82,0.00,CLR,BKN,0.00,WeatherDisplay:10.37,2013-01-09 10:44:00,
2013-01-09 04:49:00,35.6,30.6,30.02,West,270,8.5,11.5,82,0.00,CLR,BKN,0.00,WeatherDisplay:10.37,2013-01-09 10:49:00,
2013-01-09 04:54:00,35.4,30.5,30.02,West,270,9.9,10.4,82,0.00,CLR,BKN,0.00,WeatherDisplay:10.37,2013-01-09 10:54:00,
2013-01-09 04:59:00,35.2,30.3,30.02,West,270,9.9,10.4,82,0.00,CLR,BKN,0.00,WeatherDisplay:10.37,2013-01-09 10:59:00,
2013-01-09 05:04:00,35.2,30.3,30.02,West,270,11.2,11.5,82,0.00,CLR,BKN,0.00,WeatherDisplay:10.37,2013-01-09 11:04:00,
2013-01-09 05:09:00,35.2,30.3,30.03,WSW,248,12.1,12.1,82,0.00,CLR,BKN,0.00,WeatherDisplay:10.37,2013-01-09 11:09:00,
2013-01-09 05:14:00,35.2,30.6,30.03,West,270,12.8,12.8,83,0.00,CLR,BKN,0.00,WeatherDisplay:10.37,2013-01-09 11:14:00,
2013-01-09 05:19:00,35.2,30.6,30.04,WSW,248,10.5,11.5,83,0.00,CLR,BKN,0.00,WeatherDisplay:10.37,2013-01-09 11:19:00,
2013-01-09 05:24:00,35.1,30.4,30.04,West,270,10.2,11.5,83,0.00,CLR,BKN,0.00,WeatherDisplay:10.37,2013-01-09 11:24:00,
2013-01-09 05:29:00,35.1,30.7,30.05,West,270,9.7,11.5,84,0.00,CLR,BKN,0.00,WeatherDisplay:10.37,2013-01-09 11:29:00,
2013-01-09 05:34:00,34.9,30.5,30.05,West,270,9.4,12.7,84,0.00,CLR,BKN,0.00,WeatherDisplay:10.37,2013-01-09 11:34:00,
2013-01-09 05:39:00,34.9,30.5,30.05,West,270,10.7,11.5,84,0.00,CLR,BKN,0.00,WeatherDisplay:10.37,2013-01-09 11:39:00,
2013-01-09 05:44:00,34.9,30.5,30.04,WNW,292,10.5,12.7,84,0.00,CLR,BKN,0.00,WeatherDisplay:10.37,2013-01-09 11:44:00,
2013-01-09 05:49:00,34.7,30.4,30.05,West,270,7.6,10.4,84,0.00,CLR,BKN,0.00,WeatherDisplay:10.37,2013-01-09 11:49:00,
2013-01-09 05:54:00,34.5,30.2,30.05,West,270,9.9,12.7,84,0.00,CLR,BKN,0.00,WeatherDisplay:10.37,2013-01-09 11:54:00,
2013-01-09 05:59:00,34.3,30.0,30.06,WNW,292,8.3,11.5,84,0.00,CLR,BKN,0.00,WeatherDisplay:10.37,2013-01-09 11:59:00,
2013-01-09 06:04:00,34.2,29.8,30.07,West,270,8.5,10.4,84,0.00,CLR,BKN,0.00,WeatherDisplay:10.37,2013-01-09 12:04:00,
2013-01-09 06:09:00,34.2,29.8,30.07,West,270,9.2,11.5,84,0.00,CLR,BKN,0.00,WeatherDisplay:10.37,2013-01-09 12:09:00,
2013-01-09 06:14:00,34.2,29.8,30.07,West,270,12.8,12.8,84,0.00,CLR,BKN,0.00,WeatherDisplay:10.37,2013-01-09 12:14:00,
2013-01-09 06:19:00,34.0,29.9,30.08,WSW,248,9.9,11.5,85,0.00,CLR,BKN,0.00,WeatherDisplay:10.37,2013-01-09 12:19:00,
2013-01-09 06:24:00,33.8,29.5,30.08,West,270,11.4,12.7,84,0.00,CLR,BKN,0.00,WeatherDisplay:10.37,2013-01-09 12:24:00,
2013-01-09 06:29:00,33.8,29.5,30.08,West,270,10.7,11.5,84,0.00,CLR,BKN,0.00,WeatherDisplay:10.37,2013-01-09 12:29:00,
2013-01-09 06:34:00,33.8,29.8,30.08,West,270,12.8,12.8,85,0.00,CLR,BKN,0.00,WeatherDisplay:10.37,2013-01-09 12:34:00,
2013-01-09 06:39:00,33.6,29.3,30.09,WSW,248,10.5,10.5,84,0.00,CLR,BKN,0.00,WeatherDisplay:10.37,2013-01-09 12:39:00,
2013-01-09 06:44:00,33.6,29.6,30.09,NW,315,7.6,11.5,85,0.00,CLR,BKN,0.00,WeatherDisplay:10.37,2013-01-09 12:44:00,
2013-01-09 06:49:00,33.4,29.4,30.09,WNW,292,12.1,12.1,85,0.00,CLR,BKN,0.00,WeatherDisplay:10.37,2013-01-09 12:49:00,
2013-01-09 06:54:00,33.4,29.4,30.10,West,270,9.4,10.4,85,0.00,CLR,BKN,0.00,WeatherDisplay:10.37,2013-01-09 12:54:00,
2013-01-09 06:59:00,33.4,29.4,30.10,West,270,10.2,11.5,85,0.00,CLR,BKN,0.00,WeatherDisplay:10.37,2013-01-09 12:59:00,
2013-01-09 07:04:00,33.4,29.7,30.10,West,270,10.2,11.5,86,0.00,CLR,BKN,0.00,WeatherDisplay:10.37,2013-01-09 13:04:00,
2013-01-09 07:09:00,33.3,29.2,30.11,WSW,248,10.7,10.7,85,0.00,CLR,BKN,0.00,WeatherDisplay:10.37,2013-01-09 13:09:00,
2013-01-09 07:14:00,33.3,29.5,30.10,West,270,7.8,11.5,86,0.00,CLR,BKN,0.00,WeatherDisplay:10.37,2013-01-09 13:14:00,
2013-01-09 07:19:00,33.3,29.5,30.11,West,270,9.4,10.4,86,0.00,CLR,BKN,0.00,WeatherDisplay:10.37,2013-01-09 13:19:00,
2013-01-09 07:24:00,33.1,29.3,30.11,WSW,248,9.7,9.7,86,0.00,CLR,BKN,0.00,WeatherDisplay:10.37,2013-01-09 13:24:00,
2013-01-09 07:29:00,33.1,29.3,30.11,WSW,248,12.8,12.8,86,0.00,CLR,BKN,0.00,WeatherDisplay:10.37,2013-01-09 13:29:00,
2013-01-09 07:34:00,33.1,29.3,30.11,WSW,248,10.0,10.4,86,0.00,CLR,BKN,0.00,WeatherDisplay:10.37,2013-01-09 13:34:00,
2013-01-09 07:39:00,33.4,30.0,30.12,WSW,248,10.5,12.7,87,0.00,CLR,BKN,0.00,WeatherDisplay:10.37,2013-01-09 13:39:00,
2013-01-09 07:44:00,33.6,29.9,30.12,WSW,248,9.9,11.5,86,0.00,CLR,BKN,0.00,WeatherDisplay:10.37,2013-01-09 13:44:00,
2013-01-09 07:49:00,33.8,30.1,30.12,WSW,248,9.2,11.5,86,0.00,CLR,BKN,0.00,WeatherDisplay:10.37,2013-01-09 13:49:00,
2013-01-09 07:54:00,34.0,30.2,30.12,WSW,248,12.1,12.1,86,0.00,CLR,BKN,0.00,WeatherDisplay:10.37,2013-01-09 13:54:00,
2013-01-09 07:59:00,34.5,30.8,30.12,WSW,248,11.4,11.5,86,0.00,CLR,BKN,0.00,WeatherDisplay:10.37,2013-01-09 13:59:00,
2013-01-09 08:04:00,34.9,30.8,30.12,WSW,248,11.2,11.5,85,0.00,CLR,BKN,0.00,WeatherDisplay:10.37,2013-01-09 14:04:00,
2013-01-09 08:09:00,35.4,31.4,30.13,WSW,248,7.4,11.5,85,0.00,CLR,BKN,0.00,WeatherDisplay:10.37,2013-01-09 14:09:00,
2013-01-09 08:14:00,36.0,31.9,30.13,WSW,248,10.5,12.7,85,0.00,CLR,BKN,0.00,WeatherDisplay:10.37,2013-01-09 14:14:00,
2013-01-09 08:19:00,36.3,31.9,30.13,West,270,9.9,10.4,84,0.00,CLR,BKN,0.00,WeatherDisplay:10.37,2013-01-09 14:19:00,
2013-01-09 08:24:00,36.5,32.1,30.13,WSW,248,8.7,11.5,84,0.00,CLR,BKN,0.00,WeatherDisplay:10.37,2013-01-09 14:24:00,
2013-01-09 08:29:00,36.9,32.2,30.13,West,270,11.6,11.6,83,0.00,CLR,BKN,0.00,WeatherDisplay:10.37,2013-01-09 14:29:00,
2013-01-09 08:34:00,37.0,32.4,30.13,West,270,10.5,12.7,83,0.00,CLR,BKN,0.00,WeatherDisplay:10.37,2013-01-09 14:34:00,
2013-01-09 08:39:00,37.8,32.8,30.15,West,270,9.0,13.8,82,0.00,CLR,BKN,0.00,WeatherDisplay:10.37,2013-01-09 14:39:00,
2013-01-09 08:44:00,38.3,33.3,30.16,WNW,292,9.2,12.7,82,0.00,CLR,BKN,0.00,WeatherDisplay:10.37,2013-01-09 14:44:00,
2013-01-09 08:49:00,38.8,33.5,30.16,WNW,292,10.5,10.5,81,0.00,CLR,BKN,0.00,WeatherDisplay:10.37,2013-01-09 14:49:00,
2013-01-09 08:54:00,39.4,33.7,30.16,WSW,248,8.5,10.4,80,0.00,CLR,BKN,0.00,WeatherDisplay:10.37,2013-01-09 14:54:00,
2013-01-09 08:59:00,39.6,33.9,30.16,West,270,7.6,11.5,80,0.00,CLR,BKN,0.00,WeatherDisplay:10.37,2013-01-09 14:59:00,
2013-01-09 09:04:00,39.9,33.9,30.16,West,270,6.9,11.5,79,0.00,CLR,BKN,0.00,WeatherDisplay:10.37,2013-01-09 15:04:00,
2013-01-09 09:09:00,40.1,34.1,30.16,WSW,248,9.4,12.7,79,0.00,CLR,BKN,0.00,WeatherDisplay:10.37,2013-01-09 15:09:00,
2013-01-09 09:14:00,40.5,34.5,30.16,WNW,292,11.4,11.5,79,0.00,CLR,BKN,0.00,WeatherDisplay:10.37,2013-01-09 15:14:00,
2013-01-09 09:19:00,41.0,34.7,30.17,West,270,16.1,16.1,78,0.00,CLR,BKN,0.00,WeatherDisplay:10.37,2013-01-09 15:19:00,
2013-01-09 09:24:00,41.2,34.5,30.17,West,270,11.4,15.0,77,0.00,CLR,BKN,0.00,WeatherDisplay:10.37,2013-01-09 15:24:00,
2013-01-09 09:29:00,41.4,34.7,30.17,WSW,248,13.0,13.8,77,0.00,CLR,BKN,0.00,WeatherDisplay:10.37,2013-01-09 15:29:00,
2013-01-09 09:34:00,41.9,34.9,30.17,West,270,12.3,13.8,76,0.00,CLR,BKN,0.00,WeatherDisplay:10.37,2013-01-09 15:34:00,
2013-01-09 09:39:00,42.4,35.4,30.18,West,270,14.0,14.0,76,0.00,CLR,BKN,0.00,WeatherDisplay:10.37,2013-01-09 15:39:00,
2013-01-09 09:44:00,42.8,35.1,30.18,West,270,15.0,15.0,74,0.00,CLR,BKN,0.00,WeatherDisplay:10.37,2013-01-09 15:44:00,
2013-01-09 09:49:00,43.3,35.3,30.18,WSW,248,14.3,15.0,73,0.00,CLR,BKN,0.00,WeatherDisplay:10.37,2013-01-09 15:49:00,
2013-01-09 09:54:00,43.5,35.1,30.18,West,270,14.3,16.1,72,0.00,CLR,BKN,0.00,WeatherDisplay:10.37,2013-01-09 15:54:00,
2013-01-09 09:59:00,43.7,34.9,30.18,West,270,13.5,15.0,71,0.00,CLR,BKN,0.00,WeatherDisplay:10.37,2013-01-09 15:59:00,
2013-01-09 10:04:00,44.2,35.8,30.19,West,270,13.7,13.8,72,0.00,CLR,BKN,0.00,WeatherDisplay:10.37,2013-01-09 16:04:00,
2013-01-09 10:09:00,44.4,36.0,30.19,WNW,292,12.5,17.3,72,0.00,CLR,BKN,0.00,WeatherDisplay:10.37,2013-01-09 16:09:00,
2013-01-09 10:14:00,45.0,36.1,30.19,WSW,248,15.9,16.1,71,0.00,CLR,BKN,0.00,WeatherDisplay:10.37,2013-01-09 16:14:00,
2013-01-09 10:19:00,45.1,35.9,30.19,WSW,248,13.5,16.1,70,0.00,CLR,BKN,0.00,WeatherDisplay:10.37,2013-01-09 16:19:00,
2013-01-09 10:24:00,45.3,35.7,30.19,West,270,15.6,15.6,69,0.00,CLR,BKN,0.00,WeatherDisplay:10.37,2013-01-09 16:24:00,
2013-01-09 10:29:00,45.5,35.9,30.19,WNW,292,20.6,20.6,69,0.00,CLR,BKN,0.00,WeatherDisplay:10.37,2013-01-09 16:29:00,
2013-01-09 10:34:00,46.0,36.4,30.19,West,270,15.4,18.4,69,0.00,CLR,BKN,0.00,WeatherDisplay:10.37,2013-01-09 16:34:00,
2013-01-09 10:39:00,46.4,36.4,30.20,West,270,13.9,17.3,68,0.00,CLR,BKN,0.00,WeatherDisplay:10.37,2013-01-09 16:39:00,
2013-01-09 10:44:00,46.9,36.9,30.19,WNW,292,17.3,17.3,68,0.00,CLR,BKN,0.00,WeatherDisplay:10.37,2013-01-09 16:44:00,
2013-01-09 10:49:00,47.1,36.7,30.20,WNW,292,17.9,23.0,67,0.00,CLR,BKN,0.00,WeatherDisplay:10.37,2013-01-09 16:49:00,
2013-01-09 10:54:00,47.5,36.7,30.19,West,270,12.8,16.1,66,0.00,CLR,BKN,0.00,WeatherDisplay:10.37,2013-01-09 16:54:00,
2013-01-09 10:59:00,47.8,36.6,30.20,WNW,292,15.0,19.6,65,0.00,CLR,BKN,0.00,WeatherDisplay:10.37,2013-01-09 16:59:00,
2013-01-09 11:04:00,48.2,37.0,30.20,WNW,292,15.6,15.6,65,0.00,CLR,BKN,0.00,WeatherDisplay:10.37,2013-01-09 17:04:00,
2013-01-09 11:09:00,48.4,36.8,30.20,West,270,13.5,20.7,64,0.00,CLR,BKN,0.00,WeatherDisplay:10.37,2013-01-09 17:09:00,
2013-01-09 11:14:00,48.6,36.9,30.20,West,270,15.4,16.1,64,0.00,CLR,BKN,0.00,WeatherDisplay:10.37,2013-01-09 17:14:00,
2013-01-09 11:19:00,48.7,36.3,30.20,West,270,16.3,19.6,62,0.00,CLR,BKN,0.00,WeatherDisplay:10.37,2013-01-09 17:19:00,
2013-01-09 11:24:00,48.9,36.5,30.20,West,270,15.9,17.3,62,0.00,CLR,BKN,0.00,WeatherDisplay:10.37,2013-01-09 17:24:00,
2013-01-09 11:29:00,48.9,36.9,30.20,WNW,292,22.8,22.8,63,0.00,CLR,BKN,0.00,WeatherDisplay:10.37,2013-01-09 17:29:00,
2013-01-09 11:34:00,49.1,37.0,30.20,NW,315,16.6,16.6,63,0.00,CLR,BKN,0.00,WeatherDisplay:10.37,2013-01-09 17:34:00,
2013-01-09 11:39:00,49.3,36.4,30.20,WNW,292,23.0,23.0,61,0.00,CLR,BKN,0.00,WeatherDisplay:10.37,2013-01-09 17:39:00,
2013-01-09 11:44:00,49.3,36.4,30.20,WNW,292,19.2,23.0,61,0.00,CLR,BKN,0.00,WeatherDisplay:10.37,2013-01-09 17:44:00,
2013-01-09 11:49:00,49.5,36.1,30.20,West,270,20.1,25.3,60,0.00,CLR,BKN,0.00,WeatherDisplay:10.37,2013-01-09 17:49:00,
2013-01-09 11:54:00,49.8,36.5,30.20,West,270,14.3,20.7,60,0.00,CLR,BKN,0.00,WeatherDisplay:10.37,2013-01-09 17:54:00,
2013-01-09 11:59:00,50.2,36.0,30.20,WNW,292,20.8,25.3,58,0.00,CLR,BKN,0.00,WeatherDisplay:10.37,2013-01-09 17:59:00,
2013-01-09 12:04:00,50.4,35.2,30.20,West,270,26.3,26.3,56,0.00,CLR,BKN,0.00,WeatherDisplay:10.37,2013-01-09 18:04:00,
2013-01-09 12:09:00,50.2,34.6,30.20,West,270,22.3,27.6,55,0.00,CLR,BKN,0.00,WeatherDisplay:10.37,2013-01-09 18:09:00,
2013-01-09 12:14:00,50.2,34.6,30.20,West,270,26.3,26.3,55,0.00,CLR,BKN,0.00,WeatherDisplay:10.37,2013-01-09 18:14:00,
2013-01-09 12:19:00,50.0,34.9,30.21,WNW,292,19.4,21.9,56,0.00,CLR,BKN,0.00,WeatherDisplay:10.37,2013-01-09 18:19:00,
2013-01-09 12:24:00,50.4,34.8,30.21,WNW,292,18.5,20.7,55,0.00,CLR,BKN,0.00,WeatherDisplay:10.37,2013-01-09 18:24:00,
2013-01-09 12:29:00,50.9,35.3,30.20,NW,315,20.8,24.2,55,0.00,CLR,BKN,0.00,WeatherDisplay:10.37,2013-01-09 18:29:00,
2013-01-09 12:34:00,51.1,34.5,30.20,NW,315,18.1,24.2,53,0.00,CLR,BKN,0.00,WeatherDisplay:10.37,2013-01-09 18:34:00,
2013-01-09 12:39:00,51.4,34.9,30.21,NW,315,19.4,20.7,53,0.00,CLR,BKN,0.00,WeatherDisplay:10.37,2013-01-09 18:39:00,
2013-01-09 12:41:00,51.4,34.9,30.21,WNW,292,25.9,25.9,53,0.00,CLR,BKN,0.00,WeatherDisplay:10.37,2013-01-09 18:41:00,
2013-01-09 12:44:00,51.4,33.9,30.21,WNW,296,21.0,0.0,51,0.00,CLR,BKN,0.00,WeatherDisplay:10.37,2013-01-09 18:44:00,
2013-01-09 12:45:00,51.4,34.4,30.21,WNW,292,19.7,20.7,52,0.00,CLR,BKN,0.00,WeatherDisplay:10.37,2013-01-09 18:45:00,
2013-01-09 12:48:00,51.4,34.4,30.21,WNW,292,27.5,28.8,52,0.00,CLR,BKN,0.00,WeatherDisplay:10.37,2013-01-09 18:48:00,
2013-01-09 12:49:00,51.4,34.4,30.21,NW,315,31.3,31.3,52,0.00,CLR,BKN,0.00,WeatherDisplay:10.37,2013-01-09 18:49:00,
2013-01-09 12:54:00,51.1,32.6,30.21,WNW,292,25.3,28.8,49,0.00,,BKN,0.00,WeatherDisplay:10.37,2013-01-09 18:54:00,
2013-01-09 12:59:00,50.7,32.7,30.20,NW,315,25.5,25.5,50,0.00,CLR,BKN,0.00,WeatherDisplay:10.37,2013-01-09 18:59:00,
2013-01-09 13:04:00,50.7,32.7,30.21,WNW,292,29.6,29.6,50,0.00,,BKN,0.00,WeatherDisplay:10.37,2013-01-09 19:04:00,
2013-01-09 13:09:00,50.4,32.4,30.20,WNW,292,29.9,29.9,50,0.00,,BKN,0.00,WeatherDisplay:10.37,2013-01-09 19:09:00,
2013-01-09 13:14:00,50.2,32.7,30.21,WNW,292,34.2,34.2,51,0.00,,BKN,0.00,WeatherDisplay:10.37,2013-01-09 19:14:00,
2013-01-09 13:19:00,50.2,32.2,30.20,WNW,292,22.3,32.2,50,0.00,,BKN,0.00,WeatherDisplay:10.37,2013-01-09 19:19:00,
2013-01-09 13:24:00,50.0,32.1,30.21,NW,315,24.6,27.6,50,0.00,CLR,BKN,0.00,WeatherDisplay:10.37,2013-01-09 19:24:00,
2013-01-09 13:29:00,50.0,32.6,30.22,NW,315,18.3,23.0,51,0.00,,BKN,0.00,WeatherDisplay:10.37,2013-01-09 19:29:00,
2013-01-09 13:34:00,50.0,32.1,30.21,NNW,338,26.3,27.6,50,0.00,CLR,BKN,0.00,WeatherDisplay:10.37,2013-01-09 19:34:00,
2013-01-09 13:39:00,49.8,32.4,30.22,WNW,292,27.3,27.3,51,0.00,CLR,BKN,0.00,WeatherDisplay:10.37,2013-01-09 19:39:00,
2013-01-09 13:44:00,50.0,33.1,30.23,NW,315,22.1,25.3,52,0.00,CLR,BKN,0.00,WeatherDisplay:10.37,2013-01-09 19:44:00,
2013-01-09 13:49:00,50.0,33.1,30.23,NW,315,26.6,28.8,52,0.00,CLR,BKN,0.00,WeatherDisplay:10.37,2013-01-09 19:49:00,
2013-01-09 13:54:00,50.0,32.6,30.23,NW,315,25.3,25.3,51,0.00,,BKN,0.00,WeatherDisplay:10.37,2013-01-09 19:54:00,
2013-01-09 13:59:00,49.8,32.4,30.24,WNW,292,21.7,26.5,51,0.00,CLR,BKN,0.00,WeatherDisplay:10.37,2013-01-09 19:59:00,
2013-01-09 14:04:00,49.8,32.4,30.24,NW,315,24.2,24.2,51,0.00,CLR,BKN,0.00,WeatherDisplay:10.37,2013-01-09 20:04:00,
2013-01-09 14:09:00,49.8,32.4,30.23,NW,315,24.4,24.4,51,0.00,CLR,BKN,0.00,WeatherDisplay:10.37,2013-01-09 20:09:00,
2013-01-09 14:14:00,49.6,32.2,30.24,WNW,292,22.5,22.5,51,0.00,CLR,BKN,0.00,WeatherDisplay:10.37,2013-01-09 20:14:00,
2013-01-09 14:19:00,49.6,32.2,30.25,NW,315,19.2,19.6,51,0.00,CLR,BKN,0.00,WeatherDisplay:10.37,2013-01-09 20:19:00,
2013-01-09 14:24:00,49.6,32.2,30.25,NW,315,21.0,23.0,51,0.00,CLR,BKN,0.00,WeatherDisplay:10.37,2013-01-09 20:24:00,
2013-01-09 14:29:00,49.6,32.2,30.25,WNW,292,19.4,20.7,51,0.00,CLR,BKN,0.00,WeatherDisplay:10.37,2013-01-09 20:29:00,
2013-01-09 14:34:00,49.5,31.1,30.24,NNW,338,24.4,27.6,49,0.00,CLR,BKN,0.00,WeatherDisplay:10.37,2013-01-09 20:34:00,
2013-01-09 14:39:00,49.3,30.4,30.25,WNW,292,20.1,24.2,48,0.00,CLR,BKN,0.00,WeatherDisplay:10.37,2013-01-09 20:39:00,
2013-01-09 14:44:00,49.1,29.2,30.24,NW,315,25.9,28.8,46,0.00,CLR,BKN,0.00,WeatherDisplay:10.37,2013-01-09 20:44:00,
2013-01-09 14:49:00,49.1,29.2,30.25,NW,315,23.7,25.3,46,0.00,CLR,BKN,0.00,WeatherDisplay:10.37,2013-01-09 20:49:00,
2013-01-09 14:54:00,48.9,28.5,30.25,NW,315,25.3,26.5,45,0.00,CLR,BKN,0.00,WeatherDisplay:10.37,2013-01-09 20:54:00,
2013-01-09 14:59:00,48.6,27.6,30.25,NW,315,16.8,24.2,44,0.00,CLR,BKN,0.00,WeatherDisplay:10.37,2013-01-09 20:59:00,
2013-01-09 15:04:00,48.6,27.6,30.26,WNW,292,25.3,25.3,44,0.00,CLR,BKN,0.00,WeatherDisplay:10.37,2013-01-09 21:04:00,
2013-01-09 15:09:00,48.6,28.7,30.26,NW,315,27.0,27.0,46,0.00,CLR,BKN,0.00,WeatherDisplay:10.37,2013-01-09 21:09:00,
2013-01-09 15:14:00,48.2,28.4,30.26,NW,315,17.3,17.3,46,0.00,CLR,BKN,0.00,WeatherDisplay:10.37,2013-01-09 21:14:00,
2013-01-09 15:19:00,48.2,28.4,30.26,NW,315,21.3,21.3,46,0.00,CLR,BKN,0.00,WeatherDisplay:10.37,2013-01-09 21:19:00,
2013-01-09 15:24:00,48.0,28.7,30.26,NW,315,21.0,21.0,47,0.00,CLR,BKN,0.00,WeatherDisplay:10.37,2013-01-09 21:24:00,
2013-01-09 15:29:00,47.8,29.1,30.27,NW,315,14.0,16.1,48,0.00,CLR,BKN,0.00,WeatherDisplay:10.37,2013-01-09 21:29:00,
2013-01-09 15:34:00,47.8,29.1,30.27,NW,315,18.1,18.4,48,0.00,CLR,BKN,0.00,WeatherDisplay:10.37,2013-01-09 21:34:00,
2013-01-09 15:39:00,47.7,28.9,30.27,WNW,292,16.3,19.6,48,0.00,CLR,BKN,0.00,WeatherDisplay:10.37,2013-01-09 21:39:00,
2013-01-09 15:44:00,47.3,28.1,30.28,WNW,292,14.5,19.6,47,0.00,CLR,BKN,0.00,WeatherDisplay:10.37,2013-01-09 21:44:00,
2013-01-09 15:49:00,47.1,28.4,30.28,WNW,292,18.3,19.6,48,0.00,CLR,BKN,0.00,WeatherDisplay:10.37,2013-01-09 21:49:00,
2013-01-09 15:54:00,46.8,27.6,30.28,WNW,292,15.6,17.3,47,0.00,CLR,BKN,0.00,WeatherDisplay:10.37,2013-01-09 21:54:00,
2013-01-09 15:59:00,46.6,27.4,30.29,WNW,292,8.1,13.8,47,0.00,CLR,BKN,0.00,WeatherDisplay:10.37,2013-01-09 21:59:00,
2013-01-09 16:04:00,46.4,27.2,30.29,West,270,15.6,18.4,47,0.00,CLR,BKN,0.00,WeatherDisplay:10.37,2013-01-09 22:04:00,
2013-01-09 16:09:00,46.0,26.9,30.29,WNW,292,15.4,17.3,47,0.00,CLR,BKN,0.00,WeatherDisplay:10.37,2013-01-09 22:09:00,
2013-01-09 16:14:00,45.3,26.8,30.30,WNW,292,11.4,15.0,48,0.00,CLR,BKN,0.00,WeatherDisplay:10.37,2013-01-09 22:14:00,
2013-01-09 16:19:00,45.0,26.9,30.30,NW,315,11.4,13.8,49,0.00,CLR,BKN,0.00,WeatherDisplay:10.37,2013-01-09 22:19:00,
2013-01-09 16:24:00,44.6,26.6,30.31,West,270,11.4,13.8,49,0.00,CLR,BKN,0.00,WeatherDisplay:10.37,2013-01-09 22:24:00,
2013-01-09 16:29:00,44.2,26.8,30.31,WNW,292,10.9,11.5,50,0.00,CLR,BKN,0.00,WeatherDisplay:10.37,2013-01-09 22:29:00,
2013-01-09 16:34:00,43.9,26.9,30.31,WNW,292,12.1,12.1,51,0.00,CLR,BKN,0.00,WeatherDisplay:10.37,2013-01-09 22:34:00,
2013-01-09 16:39:00,43.5,26.6,30.31,WNW,292,10.9,10.9,51,0.00,CLR,BKN,0.00,WeatherDisplay:10.37,2013-01-09 22:39:00,
2013-01-09 16:44:00,43.5,27.0,30.31,NW,315,10.0,13.8,52,0.00,CLR,BKN,0.00,WeatherDisplay:10.37,2013-01-09 22:44:00,
2013-01-09 16:49:00,43.2,26.7,30.32,West,270,7.6,9.2,52,0.00,CLR,BKN,0.00,WeatherDisplay:10.37,2013-01-09 22:49:00,
2013-01-09 16:54:00,43.2,27.2,30.32,WNW,292,6.9,8.1,53,0.00,CLR,BKN,0.00,WeatherDisplay:10.37,2013-01-09 22:54:00,
2013-01-09 16:59:00,42.8,26.8,30.32,WNW,292,6.9,8.1,53,0.00,CLR,BKN,0.00,WeatherDisplay:10.37,2013-01-09 22:59:00,
2013-01-09 17:04:00,42.1,25.7,30.32,WNW,292,7.1,8.1,52,0.00,CLR,BKN,0.00,WeatherDisplay:10.37,2013-01-09 23:04:00,
2013-01-09 17:09:00,41.5,25.7,30.32,NNW,338,8.5,8.5,53,0.00,CLR,BKN,0.00,WeatherDisplay:10.37,2013-01-09 23:09:00,
2013-01-09 17:14:00,41.2,25.8,30.33,NW,315,5.6,6.9,54,0.00,CLR,BKN,0.00,WeatherDisplay:10.37,2013-01-09 23:14:00,
2013-01-09 17:19:00,41.0,25.6,30.32,NNW,338,6.7,8.1,54,0.00,CLR,BKN,0.00,WeatherDisplay:10.37,2013-01-09 23:19:00,
2013-01-09 17:24:00,40.8,25.9,30.32,NW,315,7.1,8.1,55,0.00,CLR,BKN,0.00,WeatherDisplay:10.37,2013-01-09 23:24:00,
2013-01-09 17:29:00,40.6,25.7,30.33,NW,315,6.9,6.9,55,0.00,CLR,BKN,0.00,WeatherDisplay:10.37,2013-01-09 23:29:00,
2013-01-09 17:34:00,39.9,25.0,30.32,NW,315,7.4,8.1,55,0.00,CLR,BKN,0.00,WeatherDisplay:10.37,2013-01-09 23:34:00,
2013-01-09 17:39:00,39.2,24.8,30.32,NNW,338,6.9,8.1,56,0.00,CLR,BKN,0.00,WeatherDisplay:10.37,2013-01-09 23:39:00,
2013-01-09 17:44:00,38.7,24.3,30.32,NW,315,6.9,6.9,56,0.00,CLR,BKN,0.00,WeatherDisplay:10.37,2013-01-09 23:44:00,
2013-01-09 17:49:00,38.5,24.6,30.32,NW,315,7.6,9.2,57,0.00,CLR,BKN,0.00,WeatherDisplay:10.37,2013-01-09 23:49:00,
2013-01-09 17:54:00,38.3,24.8,30.32,NNW,338,6.2,6.9,58,0.00,CLR,BKN,0.00,WeatherDisplay:10.37,2013-01-09 23:54:00,
2013-01-09 17:59:00,38.3,24.8,30.32,NNW,338,6.2,6.9,58,0.00,CLR,BKN,0.00,WeatherDisplay:10.37,2013-01-09 23:59:00,
2013-01-09 18:04:00,38.1,24.6,30.33,NNW,338,5.2,5.8,58,0.00,CLR,BKN,0.00,WeatherDisplay:10.37,2013-01-10 00:04:00,
2013-01-09 18:09:00,38.1,25.0,30.33,NW,315,3.3,4.6,59,0.00,CLR,BKN,0.00,WeatherDisplay:10.37,2013-01-10 00:09:00,
2013-01-09 18:14:00,37.8,24.3,30.33,NW,315,3.8,4.6,58,0.00,CLR,BKN,0.00,WeatherDisplay:10.37,2013-01-10 00:14:00,
2013-01-09 18:19:00,36.9,23.9,30.32,NW,315,4.0,4.6,59,0.00,CLR,BKN,0.00,WeatherDisplay:10.37,2013-01-10 00:19:00,
2013-01-09 18:24:00,36.3,23.8,30.32,NW,315,6.2,6.9,60,0.00,CLR,BKN,0.00,WeatherDisplay:10.37,2013-01-10 00:24:00,
2013-01-09 18:29:00,36.1,23.6,30.32,NNW,338,5.6,5.8,60,0.00,CLR,BKN,0.00,WeatherDisplay:10.37,2013-01-10 00:29:00,
2013-01-09 18:34:00,36.0,23.8,30.33,North,0,0.5,1.1,61,0.00,CLR,BKN,0.00,WeatherDisplay:10.37,2013-01-10 00:34:00,
2013-01-09 18:39:00,36.3,24.1,30.33,North,0,0.5,1.1,61,0.00,CLR,BKN,0.00,WeatherDisplay:10.37,2013-01-10 00:39:00,
2013-01-09 18:44:00,36.5,24.3,30.33,ESE,112,0.0,0.0,61,0.00,CLR,BKN,0.00,WeatherDisplay:10.37,2013-01-10 00:44:00,
2013-01-09 18:49:00,36.1,24.0,30.33,ENE,68,0.9,2.3,61,0.00,CLR,BKN,0.00,WeatherDisplay:10.37,2013-01-10 00:49:00,
2013-01-09 18:54:00,35.6,23.5,30.34,ENE,68,2.0,2.3,61,0.00,CLR,BKN,0.00,WeatherDisplay:10.37,2013-01-10 00:54:00,
2013-01-09 18:59:00,35.2,23.5,30.34,North,0,1.1,2.3,62,0.00,CLR,BKN,0.00,WeatherDisplay:10.37,2013-01-10 00:59:00,
2013-01-09 19:04:00,35.2,23.5,30.34,NNW,338,1.1,1.1,62,0.00,CLR,BKN,0.00,WeatherDisplay:10.37,2013-01-10 01:04:00,
2013-01-09 19:09:00,35.2,23.9,30.34,NNW,338,0.2,1.1,63,0.00,CLR,BKN,0.00,WeatherDisplay:10.37,2013-01-10 01:09:00,
2013-01-09 19:14:00,35.2,23.9,30.34,SW,225,2.0,2.3,63,0.00,CLR,BKN,0.00,WeatherDisplay:10.37,2013-01-10 01:14:00,
2013-01-09 19:19:00,35.1,23.7,30.35,SW,225,0.7,1.1,63,0.00,CLR,BKN,0.00,WeatherDisplay:10.37,2013-01-10 01:19:00,
2013-01-09 19:24:00,35.2,23.9,30.35,SW,225,1.4,1.4,63,0.00,CLR,BKN,0.00,WeatherDisplay:10.37,2013-01-10 01:24:00,
2013-01-09 19:29:00,34.9,23.9,30.35,SW,225,3.3,3.5,64,0.00,CLR,BKN,0.00,WeatherDisplay:10.37,2013-01-10 01:29:00,
2013-01-09 19:34:00,34.5,24.0,30.35,SW,225,4.7,4.7,65,0.00,CLR,BKN,0.00,WeatherDisplay:10.37,2013-01-10 01:34:00,
2013-01-09 19:39:00,34.0,23.4,30.35,SW,225,6.4,6.4,65,0.00,CLR,BKN,0.00,WeatherDisplay:10.37,2013-01-10 01:39:00,
2013-01-09 19:44:00,32.7,22.2,30.35,SW,225,6.0,6.0,65,0.00,CLR,BKN,0.00,WeatherDisplay:10.37,2013-01-10 01:44:00,
2013-01-09 19:49:00,32.0,22.6,30.36,WSW,248,6.2,6.9,68,0.00,CLR,BKN,0.00,WeatherDisplay:10.37,2013-01-10 01:49:00,
2013-01-09 19:54:00,32.0,22.6,30.36,WSW,248,4.7,5.8,68,0.00,CLR,BKN,0.00,WeatherDisplay:10.37,2013-01-10 01:54:00,
2013-01-09 19:59:00,31.8,21.7,30.36,WSW,248,3.8,4.6,66,0.00,CLR,BKN,0.00,WeatherDisplay:10.37,2013-01-10 01:59:00,
2013-01-09 20:04:00,31.8,21.7,30.36,SW,225,3.3,3.5,66,0.00,CLR,BKN,0.00,WeatherDisplay:10.37,2013-01-10 02:04:00,
2013-01-09 20:09:00,32.0,22.6,30.36,WSW,248,4.0,4.6,68,0.00,CLR,BKN,0.00,WeatherDisplay:10.37,2013-01-10 02:09:00,
2013-01-09 20:14:00,31.5,21.4,30.35,West,270,2.4,2.4,66,0.00,CLR,BKN,0.00,WeatherDisplay:10.37,2013-01-10 02:14:00,
2013-01-09 20:19:00,31.3,21.2,30.36,WSW,248,2.4,3.5,66,0.00,CLR,BKN,0.00,WeatherDisplay:10.37,2013-01-10 02:19:00,
2013-01-09 20:24:00,31.1,21.1,30.36,WSW,248,1.4,2.3,66,0.00,CLR,BKN,0.00,WeatherDisplay:10.37,2013-01-10 02:24:00,
2013-01-09 20:29:00,30.9,20.9,30.36,West,270,2.6,3.5,66,0.00,CLR,BKN,0.00,WeatherDisplay:10.37,2013-01-10 02:29:00,
2013-01-09 20:34:00,30.6,20.5,30.36,WNW,292,4.0,4.6,66,0.00,CLR,BKN,0.00,WeatherDisplay:10.37,2013-01-10 02:34:00,
2013-01-09 20:39:00,30.6,20.5,30.36,WNW,292,4.0,4.0,66,0.00,CLR,BKN,0.00,WeatherDisplay:10.37,2013-01-10 02:39:00,
2013-01-09 20:44:00,30.6,20.5,30.36,West,270,4.0,4.6,66,0.00,CLR,BKN,0.00,WeatherDisplay:10.37,2013-01-10 02:44:00,
2013-01-09 20:49:00,30.4,20.7,30.36,West,270,4.0,4.6,67,0.00,CLR,BKN,0.00,WeatherDisplay:10.37,2013-01-10 02:49:00,
2013-01-09 20:54:00,30.6,20.9,30.35,West,270,4.5,4.6,67,0.00,CLR,BKN,0.00,WeatherDisplay:10.37,2013-01-10 02:54:00,
2013-01-09 20:59:00,30.6,21.2,30.35,West,270,4.0,4.6,68,0.00,CLR,BKN,0.00,WeatherDisplay:10.37,2013-01-10 02:59:00,
2013-01-09 21:04:00,30.6,21.2,30.35,WSW,248,4.0,4.6,68,0.00,CLR,BKN,0.00,WeatherDisplay:10.37,2013-01-10 03:04:00,
2013-01-09 21:09:00,30.2,20.9,30.35,WSW,248,3.1,3.5,68,0.00,CLR,BKN,0.00,WeatherDisplay:10.37,2013-01-10 03:09:00,
2013-01-09 21:14:00,30.2,20.9,30.35,WSW,248,3.3,3.5,68,0.00,CLR,BKN,0.00,WeatherDisplay:10.37,2013-01-10 03:14:00,
2013-01-09 21:19:00,30.0,20.7,30.36,SW,225,2.9,3.5,68,0.00,CLR,BKN,0.00,WeatherDisplay:10.37,2013-01-10 03:19:00,
2013-01-09 21:24:00,30.2,21.6,30.36,WSW,248,5.4,5.8,70,0.00,CLR,BKN,0.00,WeatherDisplay:10.37,2013-01-10 03:24:00,
2013-01-09 21:29:00,30.2,21.6,30.36,WSW,248,4.3,4.6,70,0.00,CLR,BKN,0.00,WeatherDisplay:10.37,2013-01-10 03:29:00,
2013-01-09 21:34:00,29.8,21.2,30.36,SW,225,4.0,4.6,70,0.00,CLR,BKN,0.00,WeatherDisplay:10.37,2013-01-10 03:34:00,
2013-01-09 21:39:00,29.8,21.2,30.36,WSW,248,3.1,3.5,70,0.00,CLR,BKN,0.00,WeatherDisplay:10.37,2013-01-10 03:39:00,
2013-01-09 21:44:00,29.8,21.2,30.36,West,270,3.3,3.5,70,0.00,CLR,BKN,0.00,WeatherDisplay:10.37,2013-01-10 03:44:00,
2013-01-09 21:49:00,29.5,20.9,30.36,WSW,248,4.0,4.6,70,0.00,CLR,BKN,0.00,WeatherDisplay:10.37,2013-01-10 03:49:00,
2013-01-09 21:54:00,29.1,20.6,30.36,West,270,4.0,4.6,70,0.00,CLR,BKN,0.00,WeatherDisplay:10.37,2013-01-10 03:54:00,
2013-01-09 21:59:00,29.3,20.7,30.36,West,270,4.7,4.7,70,0.00,CLR,BKN,0.00,WeatherDisplay:10.37,2013-01-10 03:59:00,
2013-01-09 22:04:00,29.5,20.9,30.36,WNW,292,5.4,5.8,70,0.00,CLR,BKN,0.00,WeatherDisplay:10.37,2013-01-10 04:04:00,
2013-01-09 22:09:00,29.7,21.4,30.36,West,270,5.4,5.8,71,0.00,CLR,BKN,0.00,WeatherDisplay:10.37,2013-01-10 04:09:00,
2013-01-09 22:14:00,29.8,21.6,30.37,West,270,5.4,5.8,71,0.00,CLR,BKN,0.00,WeatherDisplay:10.37,2013-01-10 04:14:00,
2013-01-09 22:19:00,29.8,21.6,30.37,West,270,4.7,5.8,71,0.00,CLR,BKN,0.00,WeatherDisplay:10.37,2013-01-10 04:19:00,
2013-01-09 22:24:00,30.0,22.1,30.36,West,270,4.9,4.9,72,0.00,CLR,BKN,0.00,WeatherDisplay:10.37,2013-01-10 04:24:00,
2013-01-09 22:29:00,30.0,22.1,30.36,WNW,292,4.5,4.6,72,0.00,CLR,BKN,0.00,WeatherDisplay:10.37,2013-01-10 04:29:00,
2013-01-09 22:34:00,30.0,22.1,30.37,WNW,292,5.4,5.8,72,0.00,CLR,BKN,0.00,WeatherDisplay:10.37,2013-01-10 04:34:00,
2013-01-09 22:39:00,29.7,21.7,30.37,WNW,292,2.9,3.5,72,0.00,CLR,BKN,0.00,WeatherDisplay:10.37,2013-01-10 04:39:00,
2013-01-09 22:44:00,29.7,21.7,30.37,WNW,292,3.8,3.8,72,0.00,CLR,BKN,0.00,WeatherDisplay:10.37,2013-01-10 04:44:00,
2013-01-09 22:49:00,29.7,21.7,30.37,WNW,292,4.7,4.7,72,0.00,CLR,BKN,0.00,WeatherDisplay:10.37,2013-01-10 04:49:00,
2013-01-09 22:54:00,29.5,21.6,30.37,WNW,292,2.9,4.6,72,0.00,CLR,BKN,0.00,WeatherDisplay:10.37,2013-01-10 04:54:00,
2013-01-09 22:59:00,29.3,21.4,30.38,WSW,248,2.4,3.5,72,0.00,CLR,BKN,0.00,WeatherDisplay:10.37,2013-01-10 04:59:00,
2013-01-09 23:00:00,29.3,21.4,30.38,WSW,248,2.4,3.5,72,0.00,CLR,BKN,0.00,WeatherDisplay:10.37,2013-01-10 05:00:00,
2013-01-09 23:01:00,29.1,21.2,30.38,WSW,248,3.1,3.1,72,0.00,CLR,BKN,0.00,WeatherDisplay:10.37,2013-01-10 05:01:00,
2013-01-09 23:03:00,29.1,21.2,30.37,WSW,248,4.3,4.6,72,0.00,CLR,BKN,0.00,WeatherDisplay:10.37,2013-01-10 05:03:00,
2013-01-09 23:08:00,28.9,21.4,30.38,WSW,248,3.3,4.6,73,0.00,CLR,BKN,0.00,WeatherDisplay:10.37,2013-01-10 05:08:00,
2013-01-09 23:13:00,28.9,21.4,30.38,WSW,248,3.8,3.8,73,0.00,CLR,BKN,0.00,WeatherDisplay:10.37,2013-01-10 05:13:00,
2013-01-09 23:18:00,28.9,21.7,30.38,SW,225,4.0,4.6,74,0.00,CLR,BKN,0.00,WeatherDisplay:10.37,2013-01-10 05:18:00,
2013-01-09 23:23:00,29.1,21.9,30.38,West,270,3.3,4.6,74,0.00,CLR,BKN,0.00,WeatherDisplay:10.37,2013-01-10 05:23:00,
2013-01-09 23:28:00,28.9,21.7,30.38,SW,225,3.3,3.5,74,0.00,CLR,BKN,0.00,WeatherDisplay:10.37,2013-01-10 05:28:00,
2013-01-09 23:33:00,28.8,21.5,30.38,SW,225,3.3,3.5,74,0.00,CLR,BKN,0.00,WeatherDisplay:10.37,2013-01-10 05:33:00,
2013-01-09 23:38:00,28.6,21.3,30.39,WSW,248,3.3,3.5,74,0.00,CLR,BKN,0.00,WeatherDisplay:10.37,2013-01-10 05:38:00,
2013-01-09 23:43:00,28.4,21.2,30.39,SW,225,3.3,3.5,74,0.00,CLR,BKN,0.00,WeatherDisplay:10.37,2013-01-10 05:43:00,
2013-01-09 23:48:00,28.4,21.2,30.39,SW,225,3.3,3.5,74,0.00,CLR,BKN,0.00,WeatherDisplay:10.37,2013-01-10 05:48:00,
2013-01-09 23:53:00,28.0,20.8,30.39,SW,225,3.1,3.5,74,0.00,CLR,BKN,0.00,WeatherDisplay:10.37,2013-01-10 05:53:00,
2013-01-09 23:58:00,28.0,20.8,30.38,SW,225,1.1,2.3,74,0.00,CLR,BKN,0.00,WeatherDisplay:10.37,2013-01-10 05:58:00,